| time (UTC) | temp C | wind direction | speed KPH | gust KPH | rain 1hr cm | rain 24hr cm | rain mn cm | humidity % | barometer mb |
| 20260505010437 | 12 | 0.0 | 0.0 | 0.00 | 0.00 | 0.00 | 72 | 1009.5 | |
| 20260505005437 | 12 | 0.0 | 0.0 | 0.00 | 0.00 | 0.00 | 73 | 1009.8 | |
| 20260505004437 | 13 | 0.0 | 0.0 | 0.00 | 0.00 | 0.00 | 69 | 1009.8 | |
| 20260505003437 | 13 | 0.0 | 0.0 | 0.00 | 0.00 | 0.00 | 66 | 1009.7 | |
| 20260505002437 | 13 | 0.0 | 0.0 | 0.00 | 0.00 | 0.00 | 65 | 1009.7 | |
| 20260505001436 | 13 | 0.0 | 0.0 | 0.00 | 0.00 | 0.00 | 67 | 1010.0 | |
| 20260505000436 | 14 | 0.0 | 0.0 | 0.00 | 0.00 | 0.00 | 63 | 1009.9 | |
| 20260504235437 | 15 | 0.0 | 0.0 | 0.00 | 0.00 | 0.00 | 62 | 1009.9 | |
| 20260504234437 | 15 | 0.0 | 0.0 | 0.00 | 0.00 | 0.00 | 57 | 1009.9 | |
| 20260504233436 | 15 | 0.0 | 0.0 | 0.00 | 0.00 | 0.00 | 55 | 1009.8 | |
| 20260504232436 | 15 | 0.0 | 0.0 | 0.00 | 0.00 | 0.00 | 56 | 1009.7 | |
| 20260504231437 | 14 | 0.0 | 0.0 | 0.00 | 0.00 | 0.00 | 60 | 1009.8 | |
| 20260504230436 | 14 | 0.0 | 0.0 | 0.00 | 0.00 | 0.00 | 59 | 1009.8 | |
| 20260504225436 | 14 | 0.0 | 0.0 | 0.00 | 0.00 | 0.00 | 61 | 1009.9 | |
| 20260504224436 | 14 | 0.0 | 0.0 | 0.00 | 0.00 | 0.00 | 60 | 1010.0 | |
| 20260504223436 | 14 | 0.0 | 0.0 | 0.00 | 0.00 | 0.00 | 62 | 1010.1 | |
| 20260504222437 | 14 | 0.0 | 0.0 | 0.00 | 0.00 | 0.00 | 64 | 1010.2 | |
| 20260504221436 | 14 | 0.0 | 0.0 | 0.00 | 0.00 | 0.00 | 63 | 1010.2 | |
| 20260504220436 | 15 | 0.0 | 0.0 | 0.00 | 0.00 | 0.00 | 62 | 1010.2 | |
| 20260504215436 | 15 | 0.0 | 0.0 | 0.00 | 0.00 | 0.00 | 62 | 1010.3 | |
| 20260504214437 | 15 | 0.0 | 0.0 | 0.00 | 0.00 | 0.00 | 62 | 1010.4 | |
| 20260504213436 | 15 | 0.0 | 0.0 | 0.00 | 0.00 | 0.00 | 64 | 1010.5 | |
| 20260504212436 | 15 | 0.0 | 0.0 | 0.00 | 0.00 | 0.00 | 63 | 1010.5 | |
| 20260504211437 | 16 | 0.0 | 0.0 | 0.00 | 0.00 | 0.00 | 60 | 1010.6 | |
| 20260504210436 | 16 | 0.0 | 0.0 | 0.00 | 0.00 | 0.00 | 60 | 1010.6 | |
| 20260504205436 | 16 | 0.0 | 0.0 | 0.00 | 0.00 | 0.00 | 60 | 1010.5 | |
| 20260504204436 | 16 | 0.0 | 0.0 | 0.00 | 0.00 | 0.00 | 60 | 1010.6 | |
| 20260504203436 | 16 | 0.0 | 0.0 | 0.00 | 0.00 | 0.00 | 60 | 1010.6 | |
| 20260504201437 | 16 | 0.0 | 0.0 | 0.00 | 0.00 | 0.00 | 56 | 1010.5 | |
| 20260504200437 | 17 | 0.0 | 0.0 | 0.00 | 0.00 | 0.00 | 56 | 1010.6 | |
| 20260504195437 | 18 | 0.0 | 0.0 | 0.00 | 0.00 | 0.00 | 53 | 1010.4 | |
| 20260504194436 | 18 | 0.0 | 0.0 | 0.00 | 0.00 | 0.00 | 53 | 1010.5 | |
| 20260504193436 | 18 | 0.0 | 0.0 | 0.00 | 0.00 | 0.00 | 52 | 1010.4 | |
| 20260504191438 | 19 | 0.0 | 0.0 | 0.00 | 0.00 | 0.00 | 48 | 1010.5 | |
| 20260504185437 | 19 | 0.0 | 0.0 | 0.00 | 0.00 | 0.00 | 48 | 1010.4 | |
| 20260504184442 | 20 | 0.0 | 0.0 | 0.00 | 0.00 | 0.00 | 46 | 1010.2 | |
| 20260504183437 | 20 | 0.0 | 0.0 | 0.00 | 0.00 | 0.00 | 44 | 1010.1 | |
| 20260504182436 | 20 | 0.0 | 0.0 | 0.00 | 0.00 | 0.00 | 43 | 1010.1 | |
| 20260504181437 | 20 | 0.0 | 0.0 | 0.00 | 0.00 | 0.00 | 43 | 1010.2 | |
| 20260504180437 | 21 | 0.0 | 0.0 | 0.00 | 0.00 | 0.00 | 42 | 1010.1 | |
| 20260504175437 | 21 | 0.0 | 0.0 | 0.00 | 0.00 | 0.00 | 41 | 1010.1 | |
| 20260504174436 | 21 | 0.0 | 0.0 | 0.00 | 0.00 | 0.00 | 41 | 1010.0 | |
| 20260504173436 | 21 | 0.0 | 0.0 | 0.00 | 0.00 | 0.00 | 41 | 1010.0 | |
| 20260504172437 | 22 | 0.0 | 0.0 | 0.00 | 0.00 | 0.00 | 40 | 1010.0 | |
| 20260504171437 | 22 | 0.0 | 0.0 | 0.00 | 0.00 | 0.00 | 40 | 1010.0 | |
| 20260504170437 | 22 | 0.0 | 0.0 | 0.00 | 0.00 | 0.00 | 39 | 1010.0 | |
| 20260504160436 | 25 | 0.0 | 0.0 | 0.00 | 0.00 | 0.00 | 33 | 1010.2 | |
| 20260504150437 | 26 | 0.0 | 0.0 | 0.00 | 0.00 | 0.00 | 31 | 1010.4 | |
| 20260504140438 | 25 | 0.0 | 0.0 | 0.00 | 0.00 | 0.00 | 31 | 1010.8 | |
| 20260504130435 | 25 | 0.0 | 0.0 | 0.00 | 0.00 | 0.00 | 33 | 1011.4 | |
| 20260504110435 | 23 | 0.0 | 0.0 | 0.00 | 0.00 | 0.00 | 36 | 1012.5 | |
| 20260504100435 | 21 | 0.0 | 0.0 | 0.00 | 0.00 | 0.00 | 38 | 1013.1 | |
| 20260504081435 | 19 | 0.0 | 0.0 | 0.00 | 0.00 | 0.00 | 42 | 1013.5 | |
| 20260504080435 | 18 | 0.0 | 0.0 | 0.00 | 0.00 | 0.00 | 42 | 1013.3 | |
| 20260504050435 | 13 | 0.0 | 0.0 | 0.00 | 0.00 | 0.00 | 52 | 1013.1 | |
| 20260504045435 | 13 | 0.0 | 0.0 | 0.00 | 0.00 | 0.00 | 51 | 1013.2 | |
| 20260504044435 | 13 | 0.0 | 0.0 | 0.00 | 0.00 | 0.00 | 51 | 1013.1 | |
| 20260504043435 | 12 | 0.0 | 0.0 | 0.00 | 0.00 | 0.00 | 50 | 1013.1 | |
| 20260504042435 | 12 | 0.0 | 0.0 | 0.00 | 0.00 | 0.00 | 51 | 1013.0 | |
| 20260504041435 | 12 | 0.0 | 0.0 | 0.00 | 0.00 | 0.00 | 50 | 1013.0 | |
| 20260504040435 | 12 | 0.0 | 0.0 | 0.00 | 0.00 | 0.00 | 51 | 1013.0 | |
| 20260504035435 | 12 | 0.0 | 0.0 | 0.00 | 0.00 | 0.00 | 50 | 1013.0 | |
| 20260504034435 | 12 | 0.0 | 0.0 | 0.00 | 0.00 | 0.00 | 50 | 1012.8 | |
| 20260504033435 | 12 | 0.0 | 0.0 | 0.00 | 0.00 | 0.00 | 49 | 1012.7 | |
| 20260504032435 | 12 | 0.0 | 0.0 | 0.00 | 0.00 | 0.00 | 48 | 1012.8 | |
| 20260504031435 | 12 | 0.0 | 0.0 | 0.00 | 0.00 | 0.00 | 49 | 1012.8 | |
| 20260504030436 | 12 | 0.0 | 0.0 | 0.00 | 0.00 | 0.00 | 49 | 1012.7 | |
| 20260504025435 | 12 | 0.0 | 0.0 | 0.00 | 0.00 | 0.00 | 48 | 1012.6 | |
| 20260504024435 | 12 | 0.0 | 0.0 | 0.00 | 0.00 | 0.00 | 48 | 1012.6 | |
| 20260504023435 | 12 | 0.0 | 0.0 | 0.00 | 0.00 | 0.00 | 47 | 1012.4 | |
| 20260504022435 | 12 | 0.0 | 0.0 | 0.00 | 0.00 | 0.00 | 47 | 1012.4 | |
| 20260504021435 | 12 | 0.0 | 0.0 | 0.00 | 0.00 | 0.00 | 47 | 1012.3 | |
| 20260504020435 | 12 | 0.0 | 0.0 | 0.00 | 0.00 | 0.00 | 46 | 1012.5 | |
| 20260504015435 | 12 | 0.0 | 0.0 | 0.00 | 0.00 | 0.00 | 46 | 1012.5 | |
| 20260504014435 | 12 | 0.0 | 0.0 | 0.00 | 0.00 | 0.00 | 46 | 1012.5 | |
| 20260504013435 | 13 | 0.0 | 0.0 | 0.00 | 0.00 | 0.00 | 46 | 1012.4 | |
| 20260504012437 | 12 | 0.0 | 0.0 | 0.00 | 0.00 | 0.00 | 46 | 1012.3 | |
| 20260504011433 | 12 | 0.0 | 0.0 | 0.00 | 0.00 | 0.00 | 46 | 1012.3 |